Miscellaneous Local Product
Issued by NWS North Platte, NE

Home | Current Version | Previous Version | Text Only | Print | Product List | Glossary On
Versions: 1 2 3 4 5 6 7 8 9 10 11 12 13 14 15 16 17 18 19 20 21 22 23 24 25 26 27 28 29 30 31 32 33 34 35 36 37 38 39 40 41 42 43 44 45 46 47 48 49 50
000
AXUS43 KLBF 031510
MISLBF


WESTERN AND NORTH CENTRAL NEBRASKA HOURLY WEATHER ROUNDUP
NATIONAL WEATHER SERVICE NORTH PLATTE NE
1000 AM CDT TUE MAY 03 2016

NOTE: "FAIR" INDICATES FEW OR NO CLOUDS BELOW 12,000 FEET WITH NO
SIGNIFICANT WEATHER AND/OR OBSTRUCTIONS TO VISIBILITY.

NOTE: STATIONS NOT REPORTING VARIABLES SUCH AS SKY/WEATHER OR
PRESSURE ARE PROVIDED BY RAWS AND APRS NETWORKS AND ARE NOT UNDER
NATIONAL WEATHER SERVICE QUALITY CONTROL.

...OBSERVATIONS IN AND NEAR THE EASTERN PANHANDLE OF NEBRASKA...

CITY           SKY/WX    TMP DP  RH WIND       PRES   REMARKS
PINE RIDGE     SUNNY     51  40  65 W6        30.12S
CHADRON        SUNNY     55  42  61 W8        30.13S
ALLIANCE       SUNNY     51  41  68 N7        30.13R
SIDNEY           N/A     50  39  66 MISG      30.16R
CRESCENT LAKE    N/A     50  45  81 N6          N/A
BIG SPRINGS      N/A     44  43  95 NW3         N/A
$$

...OBSERVATIONS IN NORTHERN NEBRASKA AND FAR SOUTHERN SOUTH DAKOTA...

CITY           SKY/WX    TMP DP  RH WIND       PRES   REMARKS
WINNER         FAIR      57  45  64 NW9       30.08R
VALENTINE      SUNNY     51  46  83 SW6       30.09F
THEDFORD       SUNNY     52  45  77 N7        30.11F
AINSWORTH      SUNNY     53  44  72 W8        30.10S
O`NEILL        SUNNY     56  45  68 NW9       30.08S
ORD            SUNNY     53  45  74 VRB3      30.07R
BROKEN BOW     SUNNY     55  44  66 N9        30.08R
VALENTINE NWR    N/A     49  44  84 NW7         N/A
BUTTE            N/A     56  46  70 W6          N/A
HALSEY           N/A     51  46  84 NW5         N/A
CHAMBERS         N/A     60  44  56 W7          N/A
EWING            N/A     57  48  73 W5          N/A
$$

...OBSERVATIONS IN SOUTHWEST NEBRASKA AND FAR NORTHEAST COLORADO...

CITY           SKY/WX    TMP DP  RH WIND       PRES   REMARKS
HOLYOKE        FAIR      54  43  66 N9        30.14S
IMPERIAL       MOSUNNY   51  43  74 N12       30.12R
OGALLALA       SUNNY     50  43  76 N7        30.13R
NORTH PLATTE   PTSUNNY   47  44  90 NW10      30.12R
MCCOOK         SUNNY     52  45  77 N7        30.10R
LEXINGTON      SUNNY     54  43  66 NE6       30.08S HAZE
PAXTON           N/A     42  40  94 CALM        N/A
STAPLETON        N/A     51  45  80 CALM        N/A
GOTHENBURG       N/A     51  41  69 N6          N/A
CALLAWAY         N/A     49  44  84 N7          N/A
$$

...OBSERVATIONS IN CENTRAL LINCOLN COUNTY AREA...

CITY           SKY/WX    TMP DP  RH WIND       PRES   REMARKS
N.P. AIRPORT   PTSUNNY   47  44  90 NW10      30.12R
N.P. DOWNTOWN    N/A     45  43  93 NW5         N/A
N.P. HILLCREST   N/A     45  44  96 NW8         N/A
$$

...SOME OBSERVATIONS FROM AROUND THE REGION...

CITY           SKY/WX    TMP DP  RH WIND       PRES   REMARKS
DENVER         MOSUNNY   53  29  39 NW15      30.22R
LARAMIE        SUNNY     39  30  70 CALM      30.29R
CHEYENNE       PTSUNNY   51  31  46 NW13      30.22R
SCOTTSBLUFF    SUNNY     52  40  63 W7        30.16R
RAPID CITY     SUNNY     60  38  43 NW8       30.11R
BISMARCK       SUNNY     60  41  49 W7        30.00F
PIERRE         SUNNY     52  44  74 W7        30.04S
SIOUX FALLS    MOSUNNY   58  45  62 NW12      30.02S
OMAHA          SUNNY     59  46  62 CALM      30.06F
GRAND ISLAND   SUNNY     54  41  61 CALM      30.08S
KANSAS CITY    CLOUDY    59  46  62 W5        30.09S
WICHITA        MOSUNNY   57  46  66 S3        30.09R
OKLAHOMA CITY  MOSUNNY   60  47  61 SW12      30.13R
DALLAS         SUNNY     64  45  49 NW6       30.13S
AMARILLO       CLOUDY    53  39  59 N12       30.15R
DODGE CITY     CLOUDY    54  39  57 SW8       30.07S
HAYS           SUNNY     57  37  47 CALM      30.07S
GOODLAND       SUNNY     50  40  68 NW13      30.10R
$$




USA.gov is the U.S. government's official web portal to all federal, state and local government web resources and services.